Location: A�n Tadlesse
(35.0351°N, 0.5353°E)
Time: 07:52:18
(UTC+00:00)

Cosmos 1242 Rocket - Pass Details

Date: 21 October 2019
Orbit: 449 x 488 km, 81.2° (Epoch: 11 November)

Event Time Altitude Azimuth Distance (km) Brightness Sun altitude
Rises 18:06:35 0° 346° (NNW) 2,564 6.4 -11.1°
Reaches altitude 10° 18:08:45 10° 341° (NNW) 1,677 5.5 -11.5°
Maximum altitude 18:12:19 52° 265° (W) 611 3.5 -12.2°
Drops below altitude 10° 18:15:51 10° 188° (S) 1,651 5.4 -12.9°
Sets 18:17:57 0° 183° (S) 2,520 6.3 -13.4°
